Home > Weather > Noumea > Past weeks

Flag for New Caledonia Weather for the Past 2 Weeks in Noumea, New Caledonia, New Caledonia

Now
93 °F

Mostly cloudy.


Feels Like: 101 °F
Forecast: 74 / 89 °F
Wind: 12 mph from South

Location: La Tontouta Nlle-Caledonie

Current Time: Feb 11, 2016 at 1:48:48 PM

Latest Report: Feb 11, 2016 at 1:00 PM


Visibility: N/A

Pressure: 29.62 "Hg

Humidity: 49%

Dew point: 72 °F

Location of NoumeaLocation

Historic Weather in Noumea — Graph

°F

Noumea Temperature Yesterday

Maximum temperature yesterday: 90 °F (at 1:00 PM)
Minimum temperature yesterday: 72 °F (at 5:00 AM)
Average temperature yesterday: 81 °F

High & Low Weather Summary for the Past Weeks

 TemperatureHumidityPressure
High97 °F (Feb 1, 2:00 PM)94% (Jan 28, 4:00 AM)29.98 "Hg (Jan 28, 4:00 AM)
Low70 °F (Jan 29, 5:30 AM)41% (Jan 30, 1:00 PM)29.62 "Hg (Feb 10, 3:00 AM)
Average82 °F72%29.79 "Hg
* Reported Jan 27 12:00 Noon — Feb 11 12:30 PM, Noumea, Weather by CustomWeather, © 2016

Note: Actual official high and low records may vary slightly from our data, if they occured in-between our weather recording intervals... More about our weather records

Advertising

Noumea Weather History for the Previous 24 Hours

 ConditionsComfort  
Time TempWeatherWind HumidityBarometerVisibility
12:30 PM
Thu, Feb 11
93 °FPartly sunny.7 mph47%29.62 "HgN/A
12:00 PM91 °FPartly sunny.8 mph49%29.65 "HgN/A
11:00 AM91 °FPartly sunny.1 mph49%29.65 "HgN/A
10:30 AM91 °FPassing clouds.6 mph49%29.65 "HgN/A
10:00 AM90 °FSunny.3 mph52%29.65 "Hg10 mi
9:30 AM88 °FPassing clouds.5 mph55%29.68 "HgN/A
9:00 AM86 °FSunny.3 mph55%29.68 "Hg10 mi
8:30 AM84 °FSunny.2 mph62%29.68 "Hg10 mi
8:00 AM82 °FSunny.1 mph66%29.68 "Hg10 mi
7:30 AM79 °FSunny.3 mph79%29.68 "Hg10 mi
7:00 AM77 °FSunny.2 mph89%29.68 "Hg10 mi
6:30 AM73 °FSunny.2 mph89%29.68 "Hg10 mi
6:00 AM73 °FPartly sunny.2 mph89%29.68 "HgN/A
5:30 AM73 °FPartly sunny.1 mph89%29.68 "HgN/A
5:00 AM73 °FPassing clouds.No wind89%29.65 "HgN/A
4:30 AM73 °FClear.1 mph89%29.65 "Hg10 mi
4:00 AM75 °FClear.No wind83%29.65 "Hg10 mi
3:30 AM75 °FClear.No wind83%29.65 "Hg10 mi
3:00 AM75 °FPassing clouds.1 mph83%29.65 "HgN/A
2:30 AM75 °FOvercast.3 mph89%29.65 "HgN/A
2:00 AM75 °FPassing clouds.2 mph89%29.65 "HgN/A
1:30 AM75 °FPassing clouds.No wind89%29.65 "HgN/A
1:00 AM75 °FOvercast.2 mph89%29.68 "HgN/A
12:30 AM75 °FPassing clouds.2 mph83%29.68 "HgN/A
12:00 AM75 °FPassing clouds.2 mph83%29.68 "HgN/A
11:30 PM
Wed, Feb 10
75 °FPassing clouds.3 mph83%29.71 "HgN/A
11:00 PM77 °FPassing clouds.No wind83%29.71 "HgN/A
10:30 PM77 °FClear.2 mph83%29.71 "Hg10 mi
10:00 PM77 °FClear.No wind79%29.71 "Hg10 mi
9:30 PM79 °FClear.3 mph74%29.71 "Hg10 mi
9:00 PM79 °FClear.2 mph74%29.71 "Hg10 mi
8:30 PM79 °FOvercast.2 mph74%29.68 "HgN/A
8:00 PM81 °FMostly cloudy.5 mph70%29.68 "HgN/A
7:30 PM81 °FPartly cloudy.5 mph70%29.68 "HgN/A
7:00 PM81 °FOvercast.6 mph70%29.65 "HgN/A
6:30 PM82 °FPassing clouds.7 mph70%29.65 "HgN/A
6:00 PM82 °FPassing clouds.9 mph66%29.65 "HgN/A
5:30 PM84 °FPartly sunny.8 mph62%29.62 "HgN/A
5:00 PM84 °FMostly cloudy.8 mph62%29.62 "HgN/A
4:30 PM86 °FOvercast.8 mph55%29.62 "HgN/A
4:00 PM88 °FPartly sunny.8 mph52%29.62 "HgN/A
3:30 PM88 °FPartly sunny.10 mph52%29.62 "HgN/A
3:00 PM90 °FPartly sunny.9 mph52%29.62 "HgN/A
2:30 PM90 °FPassing clouds.10 mph52%29.62 "HgN/A
2:00 PM90 °FPassing clouds.9 mph55%29.62 "HgN/A
1:30 PM88 °FPassing clouds.10 mph59%29.62 "HgN/A
1:00 PM90 °FPassing clouds.10 mph52%29.62 "HgN/A
Weather by CustomWeather, © 2016

See weather overviewHow to use our weather pages